[[{"header":{"parameterUnit":"m.s-1","parameterCategory":1,"la1":30.2991,"la2":30.254,"lo1":-89.0895,"lo2":-89.0444,"dy":0.0017,"dx":0.0017,"nx":28,"ny":28,"refTime":"2024-10-20T03:00:00:Z","depth":0,"parameterNumber":2,"parameterNumberName":"U-component_of_WINDS"},"data":[0,0,0,0,0,0,0,0,0,0,0,0,0,0,0,0,0,0,0,0,0,0,0,0,0,0,0,0,0,0,0,0,0,0,0,0,0,0,0,0,0,0,0,0,0,0,0,0,0,0,0,0,0,0,0,0,0,0,-2.687,-2.687,0,-2.6931,-2.6932,-2.6932,-2.6813,-2.6809,-2.6805,-2.6802,-2.6867,-2.6873,-2.6878,0,0,0,0,0,0,0,0,0,0,0,0,0,-2.6653,-2.6657,-2.687,-2.6871,-2.6871,-2.6931,-2.6932,-2.6932,-2.6814,-2.6809,-2.6804,-2.68,-2.6866,-2.6872,-2.6878,0,0,0,0,0,0,0,0,0,0,0,0,0,-2.6734,-2.6659,-2.687,-2.6819,-2.6815,-2.6931,-2.6932,-2.6933,-2.6815,-2.6809,-2.6803,-2.6798,-2.6863,-2.6871,-2.6879,-2.7047,0,0,-2.6904,-2.6908,0,0,0,0,0,0,0,0,-2.6729,-2.6742,-2.6826,-2.6823,-2.6819,-2.6858,-2.6879,-2.6971,-2.6816,-2.6815,-2.6802,-2.6795,-2.6869,-2.6877,-2.6901,-2.705,-2.7053,-2.6905,-2.691,-2.6913,-2.6915,0,0,0,0,0,0,0,-2.6724,-2.6739,-2.6894,-2.6827,-2.6823,-2.6794,-2.6799,-2.6896,-2.6875,-2.6815,-2.6806,-2.6815,-2.6866,-2.6894,-2.6902,-2.7054,-2.6905,-2.6912,-2.6917,-2.692,-2.7346,-2.7352,0,0,0,0,0,0,-2.6724,-2.6735,-2.6892,-2.6896,-2.6759,-2.6803,-2.6809,-2.6852,-2.6873,-2.6871,-2.682,-2.6809,-2.6883,-2.6892,-2.6904,-2.7103,-2.6913,-2.6921,-2.6925,-2.7339,-2.7347,-2.7354,0,0,0,0,0,0,-2.672,-2.6739,-2.6889,-2.6813,-2.683,-2.6813,-2.6862,-2.6856,-2.6883,-2.6877,-2.6873,-2.6852,-2.6878,-2.6892,-2.7012,-2.7104,-2.6924,-2.6932,-2.7332,-2.7342,-2.735,-2.7504,0,0,0,0,0,0,-2.6714,-2.6739,-2.6802,-2.6815,-2.6834,-2.6998,-2.6868,-2.6861,-2.6897,-2.6884,-2.6906,-2.6904,-2.6875,-2.7001,-2.7021,-2.7112,-2.6938,-2.7323,-2.7336,-2.7347,-2.7491,-2.7517,-2.754,0,0,0,0,0,-2.6707,-2.6843,-2.6806,-2.6826,-2.6913,-2.7003,-2.7014,-2.6977,-2.6905,-2.6969,-2.6965,-2.6903,-2.709,-2.7014,-2.7035,-2.7131,-2.7318,-2.7332,-2.7347,-2.7479,-2.7512,-2.754,0,0,0,0,0,0,-2.6842,-2.6844,-2.6803,-2.6947,-2.6976,-2.6983,-2.7062,-2.7013,-2.7063,-2.7049,-2.7001,-2.7007,-2.7138,-2.7145,-2.7061,-2.7295,-2.7192,-2.7211,-2.7286,-2.7317,-2.7341,-2.7338,-2.6945,0,0,0,0,0,-2.6889,-2.6961,-2.6958,-2.7086,-2.7102,-2.708,-2.7118,-2.7086,-2.7115,-2.7127,-2.7131,-2.7162,-2.7227,-2.7272,-2.7331,-2.749,-2.7494,-2.7565,-2.759,-2.7611,-2.7629,-2.7715,-2.7748,-2.7402,-2.7401,-2.7401,0,0,-2.6986,-2.6996,-2.7044,-2.7113,-2.7132,-2.7209,-2.7091,-2.7177,-2.7234,-2.714,-2.7254,-2.7259,-2.7289,-2.743,-2.7492,-2.7441,-2.7725,-2.7629,-2.7646,-2.7653,-2.7734,-2.7766,-2.7796,-2.7411,-2.741,-2.7408,0,0,-2.7203,-2.7216,-2.7325,-2.7345,-2.7374,-2.7359,-2.7385,-2.7399,-2.7399,-2.7512,-2.7443,-2.751,-2.7623,-2.7649,-2.7677,-2.7902,-2.7848,-2.7922,-2.8055,-2.8139,-2.8166,-2.819,-2.8273,-2.8303,-2.794,-2.794,-2.7941,0,-2.7321,-2.7433,-2.7387,-2.7478,-2.7511,-2.7427,-2.7538,-2.756,-2.7608,-2.7633,-2.7574,-2.7715,-2.773,-2.7876,-2.7931,-2.7955,-2.7985,-2.7922,-2.8166,-2.8189,-2.8211,-2.829,-2.8321,-2.795,-2.7949,-2.7948,-2.7947,0,-2.7577,-2.7656,-2.774,-2.7788,-2.7829,-2.793,-2.79,-2.7948,-2.7913,-2.7904,-2.8021,-2.8035,-2.8097,-2.8129,-2.8095,-2.8271,-2.8238,-2.8173,-2.8069,-2.8254,-2.8327,-2.8357,-2.7963,-2.7959,-2.7957,-2.7954,0,0,-2.7884,-2.7904,-2.7936,-2.7957,-2.7982,-2.8043,-2.8139,-2.8198,-2.8242,-2.8276,-2.8358,-2.8455,-2.8395,-2.8427,-2.8395,-2.8468,-2.8649,-2.8394,-2.8394,-2.8444,-2.8846,-2.8898,-2.8933,-2.8611,-2.8617,-2.8621,-2.8844,0,-2.8101,-2.8267,-2.8229,-2.8393,-2.8466,-2.8387,-2.8471,-2.8496,-2.849,-2.8551,-2.8543,-2.8615,-2.8528,-2.8547,-2.8616,-2.8613,-2.873,-2.8595,-2.8689,-2.8693,-2.8688,-2.8971,-2.9025,-2.9236,-2.8872,-2.8877,-2.8881,0,-2.8378,-2.8423,-2.8595,-2.8608,-2.8637,-2.8714,-2.8766,-2.8825,-2.8852,-2.8842,-2.8877,-2.883,-2.8927,-2.8819,-2.8953,-2.8863,-2.8898,-2.8902,-2.8909,-2.892,-2.8801,-2.8992,-2.9301,-2.9335,-2.8925,-2.8921,-2.8918,0,-2.8589,-2.8692,-2.8808,-2.8828,-2.8846,-2.8902,-2.8912,-2.8933,-2.8971,-2.9016,-2.9041,-2.9097,-2.9129,-2.9173,-2.9144,-2.9068,-2.9284,-2.9173,-2.928,-2.9281,-2.9332,-2.933,-2.9655,-2.935,-2.9349,-2.9349,-2.9348,0,-2.8837,-2.8947,-2.8903,-2.8975,-2.9095,-2.9049,-2.9169,-2.917,-2.9189,-2.9261,-2.9194,-2.9263,-2.9218,-2.9284,-2.9261,-2.9376,-2.939,-2.9386,-2.938,-2.9395,-2.9396,-2.942,-2.9406,-2.9357,-2.9355,-2.9353,-2.9352,0,-2.9095,-2.907,-2.9192,-2.9198,-2.9202,-2.9291,-2.9296,-2.9364,-2.9351,-2.9443,-2.9462,-2.9443,-2.9516,-2.949,-2.9569,-2.9553,-2.9702,-2.9674,-2.9693,-2.9688,-2.9797,-2.9789,-3.0153,-3.0199,-2.986,-2.9863,-2.9866,0,-2.9257,-2.9339,-2.9354,-2.9397,-2.9412,-2.9481,-2.952,-2.9477,-2.952,-2.9556,-2.962,-2.9687,-2.974,-2.9861,-2.9855,-2.9915,-2.9891,-3.0014,-2.99,-2.9913,-2.9897,-2.9894,-2.9903,-3.0038,-3.0042,-3.0045,-3.0048,0,-2.9549,-2.9532,-2.959,-2.9644,-2.9692,-2.9732,-2.9767,-2.9806,-2.9765,-2.9817,-2.9891,-2.9931,-3.001,-3.0079,-3.0133,-3.0144,-3.0092,-3.0083,-3.0112,-3.013,-3.0139,-3.0139,-2.9759,-3.0076,-3.0073,-3.0071,-3.007,-3.0069,-2.9766,-2.9836,-2.9857,-2.9924,-2.9945,-2.9979,-3.0043,-3.0038,-3.0098,-3.016,-3.013,-3.0217,-3.0241,-3.0308,-3.0327,-3.0394,-3.0347,-3.0388,-3.0398,-3.041,-3.0426,-3.0125,-3.0403,-3.0402,-3.0402,-3.0401,-3.04,0,-3.0057,-3.0067,-3.0128,-3.0179,-3.0232,-3.0173,-3.0208,-3.0257,-3.0334,-3.036,-3.0413,-3.0498,-3.0564,-3.0563,-3.0624,-3.0679,-3.0656,-3.0697,-3.0694,-3.0699,-3.0463,-3.0434,-3.0714,-3.0714,-3.0714,-3.0714,-3.0714,-3.0714,-3.0216,-3.0331,-3.0317,-3.0442,-3.045,-3.0534,-3.0559,-3.0591,-3.0612,-3.071,-3.0765,-3.0762,-3.0778,-3.084,-3.0899,-3.0896,-3.0924,-3.0975,-3.0964,-3.0746,-3.0715,-3.0685,-3.0658,-3.098,-3.0981,-3.1194,-3.1196,-3.1197]},{"header":{"parameterUnit":"m.s-1","parameterCategory":1,"la1":30.2991,"la2":30.254,"lo1":-89.0895,"lo2":-89.0444,"dy":0.0017,"dx":0.0017,"nx":28,"ny":28,"refTime":"2024-10-20T03:00:00:Z","depth":0,"parameterNumber":3,"parameterNumberName":"V-component_of_WINDS"},"data":[0,0,0,0,0,0,0,0,0,0,0,0,0,0,0,0,0,0,0,0,0,0,0,0,0,0,0,0,0,0,0,0,0,0,0,0,0,0,0,0,0,0,0,0,0,0,0,0,0,0,0,0,0,0,0,0,0,0,-2.9518,-2.9518,0,-2.9535,-2.9535,-2.9536,-2.9512,-2.9511,-2.951,-2.951,-2.9526,-2.9527,-2.9528,0,0,0,0,0,0,0,0,0,0,0,0,0,-2.9462,-2.9463,-2.9518,-2.9518,-2.9518,-2.9535,-2.9535,-2.9536,-2.9512,-2.9511,-2.951,-2.9509,-2.9525,-2.9527,-2.9528,0,0,0,0,0,0,0,0,0,0,0,0,0,-2.9483,-2.9464,-2.9518,-2.9509,-2.9508,-2.9535,-2.9535,-2.9536,-2.9512,-2.9511,-2.951,-2.9509,-2.9525,-2.9527,-2.9528,-2.9565,0,0,-2.9534,-2.9535,0,0,0,0,0,0,0,0,-2.9482,-2.9486,-2.951,-2.9509,-2.9509,-2.952,-2.9522,-2.9545,-2.9513,-2.9511,-2.951,-2.9508,-2.9525,-2.9527,-2.9532,-2.9565,-2.9566,-2.9534,-2.9535,-2.9536,-2.9536,0,0,0,0,0,0,0,-2.9481,-2.9485,-2.9525,-2.951,-2.9509,-2.9503,-2.9504,-2.9526,-2.9524,-2.9511,-2.9509,-2.9512,-2.9524,-2.9531,-2.9533,-2.9566,-2.9534,-2.9536,-2.9537,-2.9537,-2.9628,-2.9629,0,0,0,0,0,0,-2.9481,-2.9484,-2.9524,-2.9525,-2.9492,-2.9505,-2.9507,-2.9518,-2.9524,-2.9524,-2.9513,-2.951,-2.9528,-2.9531,-2.9533,-2.9574,-2.9536,-2.9538,-2.9539,-2.9626,-2.9628,-2.9629,0,0,0,0,0,0,-2.948,-2.9485,-2.9523,-2.9504,-2.9508,-2.9507,-2.952,-2.9519,-2.9525,-2.9526,-2.9525,-2.952,-2.9527,-2.9531,-2.9557,-2.9575,-2.9538,-2.954,-2.9625,-2.9627,-2.9629,-2.9658,0,0,0,0,0,0,-2.9478,-2.9484,-2.9499,-2.9504,-2.951,-2.9547,-2.9521,-2.952,-2.9529,-2.9526,-2.9532,-2.9532,-2.9527,-2.9554,-2.9558,-2.9576,-2.9542,-2.9623,-2.9626,-2.9628,-2.9655,-2.9661,-2.9665,0,0,0,0,0,-2.9476,-2.9507,-2.95,-2.9505,-2.9528,-2.9549,-2.9551,-2.9545,-2.953,-2.9544,-2.9544,-2.9532,-2.9572,-2.9557,-2.9562,-2.958,-2.9622,-2.9625,-2.9628,-2.9653,-2.966,-2.9665,0,0,0,0,0,0,-2.9503,-2.9507,-2.95,-2.9533,-2.9541,-2.9545,-2.9562,-2.9552,-2.9564,-2.9561,-2.9552,-2.9554,-2.9581,-2.9584,-2.9567,-2.9615,-2.9595,-2.9599,-2.9612,-2.9618,-2.9623,-2.9621,-2.9543,0,0,0,0,0,-2.9513,-2.953,-2.9533,-2.9562,-2.9566,-2.9563,-2.9572,-2.9567,-2.9574,-2.9577,-2.9579,-2.9586,-2.96,-2.961,-2.9623,-2.9656,-2.9656,-2.9671,-2.9676,-2.968,-2.9683,-2.9699,-2.9705,-2.9639,-2.9639,-2.9639,0,0,-2.9533,-2.9538,-2.9549,-2.9567,-2.9572,-2.9589,-2.9566,-2.9586,-2.9598,-2.958,-2.9604,-2.9606,-2.9613,-2.9642,-2.9655,-2.9645,-2.9702,-2.9684,-2.9687,-2.9688,-2.9703,-2.9709,-2.9715,-2.9641,-2.9641,-2.964,0,0,-2.9578,-2.9585,-2.9608,-2.9614,-2.9622,-2.962,-2.9626,-2.9631,-2.9631,-2.9656,-2.9642,-2.9656,-2.9681,-2.9686,-2.9692,-2.9738,-2.9726,-2.9743,-2.9768,-2.9783,-2.9788,-2.9793,-2.9807,-2.9813,-2.9746,-2.9746,-2.9746,0,-2.9602,-2.9628,-2.9622,-2.9641,-2.9649,-2.9634,-2.9657,-2.9662,-2.9674,-2.9679,-2.9668,-2.9698,-2.9702,-2.9731,-2.9742,-2.9748,-2.9753,-2.9741,-2.9788,-2.9793,-2.9797,-2.9811,-2.9816,-2.9748,-2.9748,-2.9747,-2.9747,0,-2.9656,-2.9674,-2.9692,-2.9704,-2.9713,-2.9735,-2.973,-2.9741,-2.9734,-2.9733,-2.9757,-2.9761,-2.9774,-2.9781,-2.9775,-2.9809,-2.9802,-2.979,-2.9769,-2.9805,-2.9818,-2.9823,-2.975,-2.975,-2.9749,-2.9749,0,0,-2.9718,-2.9725,-2.9732,-2.9736,-2.9744,-2.9757,-2.9777,-2.979,-2.9798,-2.9807,-2.9822,-2.9843,-2.9831,-2.9838,-2.9832,-2.9846,-2.988,-2.9832,-2.9832,-2.9839,-2.9915,-2.9923,-2.9929,-2.9873,-2.9874,-2.9875,-2.9914,0,-2.9762,-2.9797,-2.9791,-2.9824,-2.9839,-2.9825,-2.9842,-2.9848,-2.9847,-2.9859,-2.9858,-2.9873,-2.9857,-2.9861,-2.9874,-2.9873,-2.9895,-2.987,-2.9886,-2.9886,-2.9882,-2.9936,-2.9945,-2.9982,-2.9919,-2.992,-2.9921,0,-2.9818,-2.9828,-2.9862,-2.9866,-2.9872,-2.9888,-2.9898,-2.991,-2.9916,-2.9914,-2.9921,-2.9913,-2.9931,-2.9911,-2.9936,-2.992,-2.9926,-2.9926,-2.9927,-2.9927,-2.9904,-2.9936,-2.9994,-2.9999,-2.9929,-2.9928,-2.9927,0,-2.9857,-2.9879,-2.9902,-2.9907,-2.9912,-2.9923,-2.9925,-2.993,-2.9938,-2.9946,-2.9951,-2.9962,-2.9968,-2.9976,-2.997,-2.9957,-2.9995,-2.9975,-2.9993,-2.9993,-3.0001,-3.0,-3.0059,-3.0008,-3.0008,-3.0007,-3.0007,0,-2.9905,-2.9926,-2.992,-2.9934,-2.9957,-2.995,-2.9972,-2.9973,-2.9977,-2.999,-2.9979,-2.9991,-2.9984,-2.9995,-2.9991,-3.0011,-3.0014,-3.0013,-3.0011,-3.0013,-3.0013,-3.0015,-3.0012,-3.0009,-3.0009,-3.0008,-3.0008,0,-2.9952,-2.9949,-2.9973,-2.9976,-2.9977,-2.9993,-2.9995,-3.0008,-3.0006,-3.0023,-3.0026,-3.0023,-3.0036,-3.0031,-3.0046,-3.0043,-3.0067,-3.0063,-3.0065,-3.0064,-3.0081,-3.0079,-3.0142,-3.0149,-3.0095,-3.0096,-3.0096,0,-2.9983,-2.9998,-3.0002,-3.001,-3.0014,-3.0027,-3.0034,-3.0027,-3.0035,-3.0042,-3.0054,-3.0066,-3.0075,-3.0096,-3.0094,-3.0105,-3.01,-3.0121,-3.0101,-3.0102,-3.0097,-3.0096,-3.0097,-3.0124,-3.0125,-3.0126,-3.0126,0,-3.0036,-3.0033,-3.0044,-3.0054,-3.0063,-3.0071,-3.0077,-3.0084,-3.0078,-3.0087,-3.01,-3.0107,-3.0121,-3.0132,-3.0141,-3.0143,-3.0133,-3.0133,-3.0137,-3.0138,-3.0138,-3.0136,-3.0074,-3.0131,-3.013,-3.013,-3.013,-3.013,-3.0074,-3.0086,-3.0091,-3.0103,-3.0107,-3.0113,-3.0124,-3.0124,-3.0135,-3.0145,-3.0141,-3.0155,-3.0159,-3.017,-3.0173,-3.0184,-3.0176,-3.0182,-3.0184,-3.0185,-3.0186,-3.0137,-3.0186,-3.0186,-3.0186,-3.0186,-3.0185,0,-3.0124,-3.0126,-3.0138,-3.0147,-3.0156,-3.0146,-3.0153,-3.0161,-3.0174,-3.0179,-3.0187,-3.0201,-3.0212,-3.0212,-3.0221,-3.023,-3.0225,-3.0233,-3.0231,-3.0231,-3.0194,-3.0189,-3.0236,-3.0236,-3.0236,-3.0236,-3.0236,-3.0236,-3.0152,-3.0172,-3.0169,-3.0191,-3.0193,-3.0207,-3.0211,-3.0216,-3.0219,-3.0236,-3.0244,-3.0244,-3.0246,-3.0256,-3.0265,-3.0264,-3.0268,-3.0276,-3.0274,-3.0239,-3.0234,-3.0229,-3.0224,-3.0277,-3.0278,-3.0309,-3.031,-3.031]}]]